Showing default

SGDC, 42692

Orbit data source: Space-Track

SGDC, 42692 is a payload satellite owned by Telebras (BR) in GEO that was launched on Thu, 04 May 2017 UTC via an ARIANE 5ECA launch vehicle from the French Guiana (FRGUI). Payload-class satellites include a variety of spacecraft equipped with specific instruments for various scientific and technological missions. These include communications satellites like Starlink; space stations such as the ISS; scientific satellites like the Hubble; Earth observation satellites from companies like Planet Labs, Umbra, and HawkEye 360; GPS; miniature CubeSats for education and research; and military/defense satellites.

Loading next visibility...
Identifier
42692, 2017-023B
Orbit
GEO
Country
Flag of BRBR / BRAZ
Related business
Manufacturer
Thales Alenia
Mission
Operational Defense Communications
Bus & Motor
SPACEBUS 4000C4, S400
Mass
5,735 kg wet, ~2,500 kg dry
Launch date (UTC)
2017-05-04 (9 years ago)
Launch vehicle
ARIANE 5ECA
Launch site
French Guiana (FRGUI)
Object type
Payload
Rocket body
Debris
Shape & HBR
Box + 2 Pan, 18.5 m
Radar Cross Section
34.994 m², Large (>1 m²)

Expand to show TLE details & history
Last TLE update: 1 day ago

TLE from 1 day ago
0 SGDC
1 42692U 17023B   26254.23499663  .00000000  00000-0  00000-0 0  9997
2 42692   0.0163 158.7225 0002286  21.9259 179.3513  1.00268546 34267
Epoch: 2026-09-11T05:38Z
TLE epoch observation values (Epoch: 2026-09-11T05:38:23.708Z)
Latitude
-0.01639°
Longitude
-74.85714°
Altitude
35,796.68 km
Speed
3.074 km/s
True Right ascension
00h 00m 00s
True Declination
0° 00' 59"
Sunlit
Object was in daylight at epoch
Visualization orbit readout
Latitude
Unknown
Longitude
Unknown
Altitude
Unknown
Speed
Unknown
Apparent Right ascension
Unknown
Apparent Declination
Unknown
Sunlit
N/A
Visualization observer readout
Local Sidereal Time
02:53:53
Azimuth
Unknown
Elevation
Unknown
Doppler factor
Unknown
Orbital elements
Apogee altitude
35,798.213 km
Perigee altitude
35,778.934 km
Semi-major axis
42,166.71 km
Eccentricity
0.00023
Inclination
0.0163°
RAAN
158.7225°
Arg. of periapsis
21.9259°
True anomaly
179.3516°
Mean anomaly
179.3513°
Eccentric anomaly
179.35145°
Mean motion
0.25066 °/min
Orbital period
1,436.2 mins
BSTAR
0
Loading maneuver chart data...
Computing Atmospheric mass density...
Loading historical data...
Loading historical data...
Loading historical data...
Loading historical data...
Loading historical data...
Loading historical data...
Loading historical data...
Other satellites on launch #23 in the year 2017 (2017-05-04 UTC)

Documentation

Showing up to 5 results
|